�N����,����,�~����,�C��,���x,�C��,����,���ϕ���,�ő�u�ԕ���,�ő厞����,���˗�,�I�_���x,�n�����x,�ő啗���N��,DTYPE
"22/10/31","00:10",0.0,9.9,92.0,1018.5,319.0,2.6,3.7,349.8,0.00,8.7,14.6,"00:08:48",1
"22/10/31","00:20",0.0,9.8,91.7,1018.5,327.5,2.6,4.0,328.2,0.00,8.6,14.5,"00:18:56",1
"22/10/31","00:30",0.0,9.9,91.3,1018.5,328.9,2.6,4.0,339.1,0.00,8.6,14.5,"00:28:24",1
"22/10/31","00:40",0.0,9.8,91.0,1018.7,321.0,2.3,3.7,312.0,0.00,8.4,14.4,"00:33:44",1
"22/10/31","00:50",0.0,9.9,90.7,1018.5,312.9,2.1,4.0,336.8,0.00,8.5,14.3,"00:41:04",1
"22/10/31","01:00",0.0,9.6,90.4,1018.5,307.1,0.7,1.9,302.2,0.00,8.1,14.3,"00:54:24",1
"22/10/31","01:10",0.0,9.1,90.3,1018.7,292.0,1.1,1.6,310.6,0.00,7.6,14.6,"01:01:28",1
"22/10/31","01:20",0.0,8.7,90.5,1018.5,282.7,1.0,1.8,313.8,0.00,7.3,14.4,"01:14:40",1
"22/10/31","01:30",0.0,8.5,90.8,1018.7,304.8,1.5,2.2,310.1,0.00,7.1,14.3,"01:26:32",1
"22/10/31","01:40",0.0,8.1,91.0,1018.5,297.8,1.2,2.4,323.4,0.00,6.8,14.3,"01:35:36",1
"22/10/31","01:50",0.0,8.1,91.6,1018.7,315.7,1.8,2.6,317.5,0.00,6.9,14.5,"01:48:08",1
"22/10/31","02:00",0.0,7.9,91.9,1018.2,310.2,1.8,2.2,326.8,0.00,6.7,14.5,"01:50:24",1
"22/10/31","02:10",0.0,8.2,92.3,1018.2,288.6,1.8,2.8,315.4,0.00,7.1,14.3,"02:04:00",1
"22/10/31","02:20",0.0,8.0,92.6,1018.7,280.3,1.2,2.0,312.3,0.00,6.9,14.2,"02:10:02",1
"22/10/31","02:30",0.0,7.7,92.8,1018.5,302.8,1.7,2.7,320.6,0.00,6.6,14.2,"02:27:20",1
"22/10/31","02:40",0.0,7.3,93.2,1018.5,314.0,2.0,3.1,321.1,0.00,6.3,14.3,"02:34:00",1
"22/10/31","02:50",0.0,7.1,93.5,1018.5,295.8,1.0,1.9,318.7,0.00,6.2,14.2,"02:49:52",1
"22/10/31","03:00",0.0,6.9,93.8,1018.7,292.3,1.6,2.2,305.2,0.00,6.0,14.2,"02:51:36",1
"22/10/31","03:10",0.0,6.8,94.1,1018.7,307.1,1.8,2.2,311.9,0.00,6.0,14.2,"03:00:48",1
"22/10/31","03:20",0.0,6.6,94.3,1018.5,286.6,0.8,2.2,319.3,0.00,5.8,14.0,"03:18:56",1
"22/10/31","03:30",0.0,6.9,94.6,1018.2,312.9,1.6,2.4,320.4,0.00,6.1,14.0,"03:20:24",1
"22/10/31","03:40",0.0,6.6,94.8,1018.0,294.8,0.8,1.6,272.2,0.00,5.9,14.1,"03:32:00",1
"22/10/31","03:50",0.0,6.3,95.0,1018.2,289.2,1.3,2.1,322.8,0.00,5.6,14.1,"03:48:40",1
"22/10/31","04:00",0.0,6.4,95.3,1018.2,301.6,1.3,1.9,318.8,0.00,5.7,13.9,"03:50:16",1
"22/10/31","04:10",0.0,6.5,95.4,1018.0,306.8,1.6,2.5,321.3,0.00,5.9,14.1,"04:01:12",1
"22/10/31","04:20",0.0,6.0,95.5,1017.5,283.9,1.1,1.6,264.7,0.00,5.4,13.8,"04:14:24",1
"22/10/31","04:30",0.0,6.4,95.7,1018.0,304.5,1.0,2.4,317.9,0.00,5.8,13.9,"04:27:52",1
"22/10/31","04:40",0.0,6.3,95.9,1018.2,288.7,1.0,2.2,314.5,0.00,5.7,13.8,"04:31:04",1
"22/10/31","04:50",0.0,6.3,96.1,1018.0,279.6,0.7,1.6,262.2,0.00,5.8,13.6,"04:47:12",1
"22/10/31","05:00",0.0,6.3,96.2,1018.0,299.0,1.0,2.1,310.8,0.00,5.8,13.8,"04:56:24",1
"22/10/31","05:10",0.0,6.1,96.3,1018.5,296.0,1.3,2.0,319.7,0.00,5.6,13.5,"05:00:08",1
"22/10/31","05:20",0.0,6.2,96.5,1018.5,321.9,1.6,2.2,326.3,0.00,5.7,13.7,"05:16:32",1
"22/10/31","05:30",0.0,6.2,96.5,1018.5,294.1,1.3,1.9,318.0,0.00,5.7,13.6,"05:21:12",1
"22/10/31","05:40",0.0,5.9,96.8,1018.5,293.6,0.8,1.2,270.7,0.00,5.5,13.4,"05:32:18",1
"22/10/31","05:50",0.0,5.8,96.9,1018.5,300.9,1.5,1.8,315.6,0.00,5.4,13.5,"05:41:12",1
"22/10/31","06:00",0.0,5.8,97.1,1018.7,284.6,1.5,2.1,314.9,0.00,5.4,13.4,"05:56:32",1
"22/10/31","06:10",0.0,5.9,97.0,1018.5,299.2,1.2,1.7,311.5,0.00,5.5,13.5,"06:02:00",1
"22/10/31","06:20",0.0,5.6,97.2,1018.7,288.1,1.0,1.6,316.9,0.00,5.2,13.4,"06:19:58",1
"22/10/31","06:30",0.0,5.7,97.4,1018.2,301.9,1.1,1.8,302.8,0.00,5.4,13.3,"06:22:08",1
"22/10/31","06:40",0.0,5.4,97.4,1018.5,271.1,0.7,1.4,302.0,0.00,5.1,13.4,"06:37:30",1
"22/10/31","06:50",0.0,5.3,97.5,1018.5,292.2,1.0,1.7,314.4,0.00,5.0,13.3,"06:44:52",1
"22/10/31","07:00",0.0,5.4,97.7,1018.5,304.3,1.3,2.0,318.1,0.00,5.1,13.4,"06:53:58",1
"22/10/31","07:10",0.0,5.5,97.8,1018.5,297.0,1.2,1.9,321.8,0.00,5.2,13.2,"07:04:04",1
"22/10/31","07:20",0.0,5.6,97.9,1018.5,295.4,1.5,2.1,322.1,0.00,5.3,13.1,"07:16:58",1
"22/10/31","07:30",0.0,6.1,97.9,1018.5,262.4,0.6,1.7,320.2,0.00,5.8,12.9,"07:21:06",1
"22/10/31","07:40",0.0,7.0,97.9,1018.7,242.9,0.5,1.1,292.7,0.00,6.7,13.1,"07:35:12",1
"22/10/31","07:50",0.0,7.8,97.8,1019.0,319.5,0.7,1.9,330.1,0.01,7.5,13.2,"07:46:52",1
"22/10/31","08:00",0.0,8.4,97.8,1019.2,300.9,1.0,1.6,319.4,0.03,8.1,13.0,"07:51:08",1
"22/10/31","08:10",0.0,9.1,97.7,1019.2,279.0,0.7,1.7,308.0,0.02,8.8,12.9,"08:01:12",1
"22/10/31","08:20",0.0,9.6,97.7,1019.4,144.8,0.3,0.9,123.9,0.07,9.3,13.0,"08:12:48",1
"22/10/31","08:30",0.0,10.0,97.7,1019.4,268.9,0.5,1.3,315.8,0.05,9.7,12.9,"08:22:24",1
"22/10/31","08:40",0.0,10.7,97.6,1019.7,131.3,0.3,1.1,97.1,0.12,10.4,13.0,"08:39:52",1
"22/10/31","08:50",0.0,11.4,97.5,1019.7,144.0,0.3,0.9,129.8,0.14,11.1,13.1,"08:41:20",1
"22/10/31","09:00",0.0,11.7,97.1,1020.1,340.1,0.7,1.9,325.8,0.16,11.3,13.0,"08:58:00",1
"22/10/31","09:10",0.0,12.4,96.2,1019.7,319.1,0.7,1.6,332.1,0.18,11.9,13.2,"09:06:16",1
"22/10/31","09:20",0.0,12.4,95.3,1019.9,277.2,1.1,2.1,328.5,0.15,11.7,13.1,"09:13:36",1
"22/10/31","09:30",0.0,12.5,94.7,1019.7,259.0,1.3,2.7,247.1,0.15,11.7,13.2,"09:27:12",1
"22/10/31","09:40",0.0,13.6,93.8,1019.9,221.2,0.8,1.7,228.1,0.25,12.7,13.3,"09:30:16",1
"22/10/31","09:50",0.0,13.8,90.9,1019.9,250.4,0.8,2.1,235.8,0.17,12.4,13.3,"09:47:36",1
"22/10/31","10:00",0.0,14.4,87.3,1020.1,225.7,0.5,1.0,248.9,0.22,12.4,13.2,"09:50:24",1
"22/10/31","10:10",0.0,15.1,82.6,1020.4,225.2,0.5,1.1,96.2,0.18,12.2,13.3,"10:09:04",1
"22/10/31","10:20",0.0,15.8,77.0,1020.1,279.3,0.3,1.1,264.9,0.20,11.8,13.6,"10:16:32",1
"22/10/31","10:30",0.0,16.3,74.1,1020.1,316.5,0.3,0.9,303.6,0.21,11.7,13.5,"10:21:04",1
"22/10/31","10:40",0.0,16.8,70.0,1019.4,274.7,0.5,1.2,280.1,0.25,11.3,13.7,"10:32:32",1
"22/10/31","10:50",0.0,17.5,68.8,1019.2,284.8,0.8,1.4,314.5,0.30,11.8,13.7,"10:43:36",1
"22/10/31","11:00",0.0,17.5,66.3,1019.2,332.5,1.5,2.9,331.5,0.18,11.2,13.6,"10:53:12",1
"22/10/31","11:10",0.0,17.4,65.7,1019.0,259.5,1.0,2.5,221.7,0.20,11.0,13.7,"11:02:40",1
"22/10/31","11:20",0.0,18.0,66.8,1018.7,226.4,0.6,1.4,161.9,0.27,11.8,13.8,"11:16:40",1
"22/10/31","11:30",0.0,18.8,63.5,1018.2,223.6,0.7,1.8,127.4,0.40,11.8,13.9,"11:22:56",1
"22/10/31","11:40",0.0,19.2,61.0,1018.0,104.5,0.7,1.6,122.1,0.36,11.5,14.1,"11:35:20",1
"22/10/31","11:50",0.0,19.6,60.8,1018.0,113.8,0.7,2.1,136.2,0.40,11.9,14.2,"11:46:16",1
"22/10/31","12:00",0.0,19.9,58.0,1017.8,269.3,0.7,1.4,307.4,0.36,11.4,14.2,"11:56:40",1
"22/10/31","12:10",0.0,20.2,58.5,1017.3,160.8,0.7,1.9,142.3,0.41,11.9,14.3,"12:08:32",1
"22/10/31","12:20",0.0,20.6,56.2,1017.3,300.6,0.5,1.6,184.9,0.38,11.6,14.2,"12:17:04",1
"22/10/31","12:30",0.0,20.7,56.9,1017.1,216.0,0.5,1.7,104.1,0.29,11.9,14.4,"12:24:16",1
"22/10/31","12:40",0.0,20.9,54.7,1017.1,121.3,1.0,2.2,146.7,0.44,11.5,14.6,"12:32:16",1
"22/10/31","12:50",0.0,21.0,53.3,1016.6,234.2,1.1,2.6,230.4,0.39,11.2,14.8,"12:46:08",1
"22/10/31","13:00",0.0,20.6,52.7,1016.4,228.7,1.6,3.9,217.4,0.45,10.6,14.6,"12:54:16",1
"22/10/31","13:10",0.0,20.8,53.5,1016.6,204.7,1.2,3.4,216.4,0.41,11.1,15.0,"13:03:52",1
"22/10/31","13:20",0.0,21.4,52.7,1015.9,201.0,0.8,2.1,131.5,0.44,11.4,14.8,"13:15:36",1
"22/10/31","13:30",0.0,22.1,51.4,1015.9,229.6,0.7,1.8,144.2,0.44,11.7,15.0,"13:26:32",1
"22/10/31","13:40",0.0,22.4,51.7,1015.6,154.8,1.0,3.1,163.7,0.45,12.0,15.0,"13:39:44",1
"22/10/31","13:50",0.0,21.7,52.9,1015.6,164.2,1.3,3.6,130.7,0.40,11.7,15.2,"13:42:48",1
"22/10/31","14:00",0.0,20.9,54.4,1015.6,146.3,1.2,3.3,139.3,0.23,11.4,15.3,"13:59:20",1
"22/10/31","14:10",0.0,20.4,55.9,1016.1,119.8,1.6,3.6,113.7,0.25,11.4,15.6,"14:08:40",1
"22/10/31","14:20",0.0,20.6,57.1,1015.6,147.4,1.2,2.4,111.1,0.26,11.9,15.4,"14:10:32",1
"22/10/31","14:30",0.0,20.2,57.3,1015.6,123.8,1.1,3.5,131.4,0.19,11.5,15.6,"14:27:28",1
"22/10/31","14:40",0.0,19.7,58.4,1015.9,109.7,1.0,2.4,164.8,0.10,11.4,15.7,"14:39:28",1
"22/10/31","14:50",0.0,18.9,60.6,1016.1,148.6,1.3,2.5,144.2,0.07,11.2,15.5,"14:41:12",1
"22/10/31","15:00",0.0,18.6,63.6,1016.1,124.1,1.0,2.0,102.2,0.02,11.6,15.6,"14:51:52",1
"22/10/31","15:10",0.0,17.9,64.8,1016.4,148.0,1.0,2.6,164.2,0.00,11.2,15.8,"15:03:12",1
"22/10/31","15:20",0.0,17.7,67.1,1016.6,161.6,1.0,2.5,146.5,0.00,11.6,15.9,"15:14:18",1
"22/10/31","15:30",0.0,17.5,69.0,1016.4,136.7,1.0,1.9,166.6,0.01,11.8,15.9,"15:29:04",1
"22/10/31","15:40",0.0,17.2,70.5,1016.4,207.7,0.7,1.9,218.2,0.00,11.8,15.8,"15:31:04",1
"22/10/31","15:50",0.0,17.2,71.2,1016.4,166.7,0.3,0.8,160.3,0.01,12.0,15.8,"15:45:28",1
"22/10/31","16:00",0.0,17.4,71.6,1016.6,239.0,0.1,0.5,54.7,0.02,12.3,15.8,"15:54:08",1
"22/10/31","16:10",0.0,17.9,71.5,1016.4,231.7,0.5,1.1,133.8,0.07,12.7,15.7,"16:06:56",1
"22/10/31","16:20",0.0,17.8,71.9,1017.1,186.6,0.6,1.8,205.8,0.04,12.7,15.9,"16:15:44",1
"22/10/31","16:30",0.0,17.3,73.1,1017.1,355.2,0.5,1.2,2.8,0.02,12.5,15.9,"16:28:24",1
"22/10/31","16:40",0.0,17.1,74.1,1017.1,320.7,1.2,2.0,318.6,0.02,12.5,15.8,"16:37:28",1
"22/10/31","16:50",0.0,17.1,76.1,1017.1,340.4,1.0,1.6,355.7,0.00,12.9,15.9,"16:45:52",1
"22/10/31","17:00",0.0,16.9,78.4,1017.3,335.5,1.1,2.0,327.2,0.00,13.2,16.0,"16:55:12",1
"22/10/31","17:10",0.0,16.7,79.4,1017.3,335.2,1.0,1.7,333.1,0.00,13.2,16.0,"17:05:44",1
"22/10/31","17:20",0.0,16.5,80.0,1017.3,327.3,1.0,2.2,319.1,0.00,13.1,16.1,"17:15:28",1
"22/10/31","17:30",0.0,16.4,80.4,1017.3,313.3,0.5,1.4,333.3,0.00,13.1,15.8,"17:20:56",1
"22/10/31","17:40",0.0,16.3,80.9,1017.8,289.6,0.3,0.9,194.6,0.00,13.1,15.9,"17:34:00",1
"22/10/31","17:50",0.0,16.2,80.5,1017.5,334.9,0.6,1.1,23.0,0.00,12.9,15.8,"17:40:56",1
"22/10/31","18:00",0.0,16.0,80.1,1017.3,272.8,0.6,1.2,317.7,0.00,12.6,15.7,"17:51:04",1
"22/10/31","18:10",0.0,15.8,79.0,1017.8,92.0,0.5,1.6,169.0,0.00,12.2,15.9,"18:06:16",1
"22/10/31","18:20",0.0,16.0,78.1,1017.8,288.6,0.3,0.6,271.4,0.00,12.2,15.7,"18:17:04",1
"22/10/31","18:30",0.0,15.7,78.3,1017.8,302.3,1.0,1.4,319.4,0.00,12.0,15.8,"18:21:12",1
"22/10/31","18:40",0.0,15.4,79.4,1017.5,320.0,1.0,1.6,332.8,0.00,11.9,15.8,"18:39:20",1
"22/10/31","18:50",0.0,15.1,80.4,1017.5,324.4,1.0,1.8,327.2,0.00,11.8,15.9,"18:42:24",1
"22/10/31","19:00",0.0,14.7,81.4,1017.8,304.7,0.7,1.2,324.5,0.00,11.6,15.7,"18:58:00",1
"22/10/31","19:10",0.0,14.4,82.3,1017.8,288.4,0.7,1.2,299.6,0.00,11.5,15.7,"19:02:00",1
"22/10/31","19:20",0.0,14.3,83.3,1017.5,317.5,1.0,1.4,325.5,0.00,11.5,15.9,"19:19:38",1
"22/10/31","19:30",0.0,14.3,84.4,1017.5,297.5,0.7,1.3,314.0,0.00,11.7,15.7,"19:23:12",1
"22/10/31","19:40",0.0,14.3,84.9,1017.8,297.2,0.8,1.4,327.5,0.00,11.8,15.7,"19:35:04",1
"22/10/31","19:50",0.0,14.3,85.4,1018.0,302.1,0.8,1.3,303.3,0.00,11.9,15.8,"19:42:24",1
"22/10/31","20:00",0.0,14.2,86.0,1017.8,302.5,1.0,1.4,324.6,0.00,11.9,15.7,"19:50:02",1
"22/10/31","20:10",0.0,14.3,86.3,1018.0,304.0,1.1,1.7,315.2,0.00,12.1,15.6,"20:06:48",1
"22/10/31","20:20",0.0,14.1,86.5,1018.2,294.4,0.7,1.1,266.5,0.00,11.9,15.6,"20:12:16",1
"22/10/31","20:30",0.0,13.9,87.0,1018.2,310.1,0.8,1.1,330.3,0.00,11.8,15.6,"20:29:16",1
"22/10/31","20:40",0.0,13.9,87.5,1018.2,323.3,1.1,1.4,334.7,0.00,11.9,15.6,"20:38:00",1
"22/10/31","20:50",0.0,13.7,87.6,1018.0,287.9,0.7,1.2,323.0,0.00,11.7,15.5,"20:40:08",1
"22/10/31","21:00",0.0,13.5,88.1,1017.8,281.0,0.6,1.2,309.5,0.00,11.6,15.3,"20:54:20",1
"22/10/31","21:10",0.0,13.4,88.7,1018.0,284.1,1.0,1.3,253.4,0.00,11.6,15.5,"21:08:52",1
"22/10/31","21:20",0.0,13.5,89.1,1018.0,291.0,0.6,1.1,290.9,0.00,11.8,15.5,"21:17:58",1
"22/10/31","21:30",0.0,13.6,89.4,1018.2,277.4,0.6,0.9,260.3,0.00,11.9,15.4,"21:22:00",1
"22/10/31","21:40",0.0,13.5,89.8,1018.0,283.2,0.7,1.3,313.6,0.00,11.9,15.5,"21:38:40",1
"22/10/31","21:50",0.0,13.5,90.2,1018.2,290.8,0.7,1.3,323.0,0.00,12.0,15.3,"21:42:36",1
"22/10/31","22:00",0.0,13.9,90.4,1017.8,284.9,0.6,1.2,308.9,0.00,12.4,15.5,"21:55:36",1
"22/10/31","22:10",0.0,14.5,90.6,1017.8,306.3,0.7,1.8,346.6,0.00,13.0,15.5,"22:00:02",1
"22/10/31","22:20",0.0,15.0,90.1,1018.0,328.5,0.6,1.8,331.5,0.00,13.4,15.5,"22:10:16",1
"22/10/31","22:30",0.0,15.6,89.4,1018.0,310.4,0.6,1.9,326.2,0.00,13.9,15.6,"22:24:48",1
"22/10/31","22:40",0.0,15.6,88.2,1017.8,291.7,0.6,1.0,132.1,0.00,13.7,15.4,"22:33:36",1
"22/10/31","22:50",0.0,16.0,87.2,1018.0,262.0,0.5,0.9,268.1,0.00,13.9,15.6,"22:46:56",1
"22/10/31","23:00",0.0,16.0,86.0,1018.0,270.7,0.5,1.9,263.7,0.00,13.7,15.4,"22:54:08",1
"22/10/31","23:10",0.0,16.0,85.1,1018.0,278.4,0.6,1.3,318.5,0.00,13.5,15.3,"23:02:56",1
"22/10/31","23:20",0.0,15.9,84.6,1018.0,296.0,0.8,1.7,313.8,0.00,13.4,15.5,"23:16:56",1
"22/10/31","23:30",0.0,15.9,84.3,1017.8,314.2,1.0,1.6,318.0,0.00,13.3,15.3,"23:26:16",1
"22/10/31","23:40",0.0,16.0,83.6,1017.8,312.4,0.7,1.8,343.6,0.00,13.3,15.5,"23:30:32",1
"22/10/31","23:50",0.0,16.1,83.1,1017.8,310.8,0.5,1.4,327.6,0.00,13.3,15.3,"23:43:36",1
"22/10/31","24:00",0.0,16.2,82.8,1017.8,296.5,0.6,1.3,341.9,0.00,13.3,15.5,"23:50:24",1
